AEA2704 LIMC-LEMD

Flight info

Callsign AEA2704
Flight time 1h 45m
Altitude 41000
Route NEDED DCT GEKBA DCT VAMTU DCT KOLON DCT GANGU DCT PADKO DCT DIVKO DCT NILDU DCT NENDA N975 ADUXO
Aircraft B788/H-SDE1E2E3FGHIJ2J3J4J5M1RWXY/LB1D1

Departure

Time 2026-05-06 09:22
Airport Milan Malpensa International Airport (LIMC)

Arrival

Time 2026-05-06 11:07
Airport Adolfo Suárez Madrid–Barajas Airport (LEMD)
Time Latitude Longitude Altitude Speed Heading
2026-05-06 08:50 45.61626 8.71964 781 ft 0 kts 259°
2026-05-06 09:09 45.61628 8.71981 781 ft 2 kts 259°
2026-05-06 09:10 45.61634 8.72007 781 ft 3 kts 240°
2026-05-06 09:10 45.61647 8.72028 781 ft 3 kts 215°
2026-05-06 09:10 45.61666 8.72040 781 ft 3 kts 191°
2026-05-06 09:10 45.61686 8.72040 781 ft 3 kts 169°
2026-05-06 09:11 45.61704 8.72035 781 ft 0 kts 169°
2026-05-06 09:11 45.61702 8.72036 781 ft 0 kts 169°
2026-05-06 09:13 45.61701 8.72036 781 ft 0 kts 169°
2026-05-06 09:14 45.61683 8.72045 781 ft 6 kts 153°
2026-05-06 09:14 45.61629 8.72087 781 ft 12 kts 152°
2026-05-06 09:14 45.61535 8.72138 781 ft 17 kts 163°
2026-05-06 09:14 45.61403 8.72175 781 ft 21 kts 170°
2026-05-06 09:15 45.61256 8.72211 781 ft 22 kts 170°
2026-05-06 09:15 45.61097 8.72252 781 ft 22 kts 170°
2026-05-06 09:15 45.60952 8.72291 781 ft 22 kts 171°
2026-05-06 09:15 45.60798 8.72338 781 ft 21 kts 167°
2026-05-06 09:16 45.60691 8.72376 781 ft 15 kts 151°
2026-05-06 09:16 45.60639 8.72508 781 ft 17 kts 98°
2026-05-06 09:16 45.60624 8.72687 781 ft 19 kts 96°
2026-05-06 09:16 45.60609 8.72888 781 ft 21 kts 96°
2026-05-06 09:17 45.60594 8.73107 781 ft 20 kts 92°
2026-05-06 09:17 45.60655 8.73269 781 ft 20 kts 27°
2026-05-06 09:17 45.60791 8.73354 781 ft 22 kts 20°
2026-05-06 09:17 45.60937 8.73392 781 ft 23 kts 351°
2026-05-06 09:18 45.61106 8.73346 781 ft 27 kts 345°
2026-05-06 09:18 45.61288 8.73286 781 ft 27 kts 349°
2026-05-06 09:18 45.61454 8.73244 781 ft 16 kts 350°
2026-05-06 09:18 45.61551 8.73218 781 ft 15 kts 347°
2026-05-06 09:19 45.61623 8.73245 781 ft 8 kts 72°
2026-05-06 09:19 45.61631 8.73344 781 ft 13 kts 84°
2026-05-06 09:19 45.61610 8.73481 781 ft 16 kts 113°
2026-05-06 09:19 45.61593 8.73629 781 ft 13 kts 83°
2026-05-06 09:20 45.61602 8.73708 781 ft 8 kts 70°
2026-05-06 09:20 45.61633 8.73725 781 ft 6 kts 349°
2026-05-06 09:20 45.61640 8.73723 781 ft 1 kts 349°
2026-05-06 09:20 45.61645 8.73722 781 ft 0 kts 349°
2026-05-06 09:21 45.61660 8.73718 781 ft 8 kts 349°
2026-05-06 09:21 45.61897 8.73654 781 ft 74 kts 348°
2026-05-06 09:21 45.62687 8.73433 781 ft 154 kts 350°
2026-05-06 09:21 45.63890 8.73099 1205 ft 185 kts 351°
2026-05-06 09:22 45.65166 8.72733 2190 ft 187 kts 353°
2026-05-06 09:22 45.66484 8.72615 3117 ft 189 kts 360°
2026-05-06 09:22 45.67808 8.72581 3923 ft 193 kts
2026-05-06 09:22 45.69200 8.72596 4492 ft 210 kts
2026-05-06 09:23 45.70741 8.72590 4932 ft 233 kts 358°
2026-05-06 09:23 45.72347 8.71875 5310 ft 254 kts 327°
2026-05-06 09:23 45.73523 8.69953 5880 ft 265 kts 296°
2026-05-06 09:23 45.73877 8.67346 6594 ft 273 kts 266°
2026-05-06 09:24 45.73308 8.64768 7498 ft 273 kts 242°
2026-05-06 09:24 45.72433 8.62362 8530 ft 273 kts 242°
2026-05-06 09:24 45.71561 8.59936 9426 ft 277 kts 239°
2026-05-06 09:24 45.70499 8.57603 10257 ft 283 kts 234°
2026-05-06 09:25 45.69368 8.55174 10713 ft 304 kts 235°
2026-05-06 09:25 45.68131 8.52599 11099 ft 324 kts 229°
2026-05-06 09:25 45.66313 8.50625 11593 ft 337 kts 205°
2026-05-06 09:25 45.64099 8.49439 12350 ft 343 kts 198°
2026-05-06 09:26 45.61828 8.48329 13197 ft 346 kts 198°
2026-05-06 09:26 45.59564 8.47157 13632 ft 346 kts 199°
2026-05-06 09:26 45.57314 8.45923 14049 ft 346 kts 200°
2026-05-06 09:26 45.55073 8.44671 14849 ft 345 kts 200°
2026-05-06 09:27 45.52799 8.43533 15640 ft 348 kts 198°
2026-05-06 09:27 45.50494 8.42417 16362 ft 352 kts 198°
2026-05-06 09:27 45.48163 8.41286 17115 ft 355 kts 198°
2026-05-06 09:27 45.45825 8.40142 17875 ft 356 kts 198°
2026-05-06 09:28 45.43482 8.38991 18575 ft 358 kts 199°
2026-05-06 09:28 45.41115 8.37825 19212 ft 362 kts 199°
2026-05-06 09:28 45.38724 8.36645 19844 ft 365 kts 199°
2026-05-06 09:28 45.36315 8.35456 20472 ft 368 kts 199°
2026-05-06 09:29 45.33888 8.34259 21070 ft 371 kts 200°
2026-05-06 09:29 45.31439 8.33052 21639 ft 374 kts 200°
2026-05-06 09:29 45.28976 8.31838 22197 ft 376 kts 200°
2026-05-06 09:29 45.26455 8.30597 22774 ft 379 kts 200°
2026-05-06 09:30 45.23964 8.29373 23302 ft 381 kts 200°
2026-05-06 09:30 45.21451 8.28138 23831 ft 384 kts 200°
2026-05-06 09:30 45.18911 8.26892 24361 ft 386 kts 201°
2026-05-06 09:30 45.16372 8.25647 24946 ft 386 kts 201°
2026-05-06 09:31 45.13841 8.24408 25540 ft 386 kts 201°
2026-05-06 09:31 45.11240 8.23395 26147 ft 388 kts 195°
2026-05-06 09:31 45.08589 8.22650 26615 ft 392 kts 194°
2026-05-06 09:31 45.05884 8.21982 27084 ft 395 kts 193°
2026-05-06 09:32 45.03175 8.21354 27624 ft 396 kts 193°
2026-05-06 09:32 45.00450 8.20745 28205 ft 395 kts 193°
2026-05-06 09:32 44.97728 8.20146 28711 ft 397 kts 193°
2026-05-06 09:32 44.95001 8.19552 29165 ft 399 kts 193°
2026-05-06 09:33 44.92244 8.18955 29632 ft 401 kts 193°
2026-05-06 09:33 44.89490 8.18362 30130 ft 401 kts 193°
2026-05-06 09:33 44.86725 8.17767 30556 ft 404 kts 193°
2026-05-06 09:33 44.83935 8.17166 30923 ft 407 kts 193°
2026-05-06 09:34 44.81119 8.16561 31321 ft 410 kts 193°
2026-05-06 09:34 44.78295 8.15956 31752 ft 412 kts 193°
2026-05-06 09:34 44.75454 8.15347 32159 ft 414 kts 193°
2026-05-06 09:34 44.72620 8.14618 32608 ft 412 kts 199°
2026-05-06 09:35 44.69987 8.13163 33276 ft 402 kts 207°
2026-05-06 09:35 44.67503 8.11447 34072 ft 394 kts 209°
2026-05-06 09:35 44.65084 8.09684 34606 ft 392 kts 210°
2026-05-06 09:35 44.62674 8.07837 34837 ft 397 kts 211°
2026-05-06 09:36 44.60264 8.05910 35020 ft 403 kts 212°
2026-05-06 09:36 44.57836 8.03914 35360 ft 404 kts 212°
2026-05-06 09:36 44.55420 8.01899 35831 ft 403 kts 212°
2026-05-06 09:36 44.53022 7.99885 36284 ft 402 kts 213°
2026-05-06 09:37 44.50625 7.97861 36598 ft 404 kts 212°
2026-05-06 09:37 44.48214 7.95818 36830 ft 407 kts 213°
2026-05-06 09:37 44.45791 7.93764 37108 ft 409 kts 213°
2026-05-06 09:37 44.43347 7.91692 37463 ft 409 kts 213°
2026-05-06 09:38 44.40916 7.89633 37833 ft 409 kts 213°
2026-05-06 09:38 44.38482 7.87572 38156 ft 409 kts 213°
2026-05-06 09:38 44.36038 7.85503 38440 ft 410 kts 213°
2026-05-06 09:38 44.33594 7.83437 38732 ft 411 kts 213°
2026-05-06 09:39 44.31153 7.81375 39008 ft 412 kts 213°
2026-05-06 09:39 44.28717 7.79261 39253 ft 413 kts 216°
2026-05-06 09:39 44.26434 7.76830 39497 ft 413 kts 220°
2026-05-06 09:39 44.24219 7.74266 39746 ft 414 kts 221°
2026-05-06 09:40 44.22026 7.71640 39972 ft 416 kts 221°
2026-05-06 09:40 44.19847 7.68991 40181 ft 417 kts 221°
2026-05-06 09:40 44.15498 7.63596 40598 ft 420 kts 225°
2026-05-06 09:41 44.13476 7.60642 40793 ft 421 kts 227°
2026-05-06 09:41 44.11517 7.57609 40864 ft 423 kts 228°
2026-05-06 09:41 44.07623 7.51419 40861 ft 428 kts 229°
2026-05-06 09:42 44.04364 7.46211 40846 ft 430 kts 229°
2026-05-06 09:42 44.00431 7.39936 40856 ft 432 kts 229°
2026-05-06 09:43 43.96479 7.33657 40869 ft 432 kts 229°
2026-05-06 09:43 43.92513 7.27374 40879 ft 433 kts 229°
2026-05-06 09:44 43.88543 7.21089 40867 ft 433 kts 229°
2026-05-06 09:44 43.84576 7.14821 40874 ft 433 kts 229°
2026-05-06 09:45 43.80603 7.08558 40884 ft 433 kts 229°
2026-05-06 09:45 43.76620 7.02292 40869 ft 434 kts 229°
2026-05-06 09:46 43.73030 6.95531 40863 ft 435 kts 240°
2026-05-06 09:46 43.70369 6.87999 40885 ft 436 kts 244°
2026-05-06 09:47 43.67931 6.80323 40869 ft 437 kts 245°
2026-05-06 09:47 43.65583 6.72577 40882 ft 437 kts 246°
2026-05-06 09:48 43.63260 6.64813 40891 ft 438 kts 246°
2026-05-06 09:48 43.60940 6.57042 40882 ft 438 kts 246°
2026-05-06 09:49 43.58616 6.49283 40892 ft 439 kts 246°
2026-05-06 09:49 43.56275 6.41490 40904 ft 439 kts 246°
2026-05-06 09:50 43.53933 6.33711 40898 ft 440 kts 246°
2026-05-06 09:50 43.51586 6.25936 40905 ft 440 kts 246°
2026-05-06 09:51 43.49232 6.18164 40911 ft 440 kts 245°
2026-05-06 09:51 43.46873 6.10394 40898 ft 440 kts 245°
2026-05-06 09:52 43.44512 6.02627 40911 ft 440 kts 245°
2026-05-06 09:52 43.42149 5.94860 40913 ft 440 kts 246°
2026-05-06 09:53 43.39780 5.87088 40902 ft 441 kts 246°
2026-05-06 09:53 43.37403 5.79323 40917 ft 441 kts 246°
2026-05-06 09:54 43.35021 5.71567 40921 ft 441 kts 246°
2026-05-06 09:54 43.32631 5.63807 40912 ft 441 kts 245°
2026-05-06 09:55 43.30236 5.56055 40927 ft 441 kts 245°
2026-05-06 09:55 43.27837 5.48318 40930 ft 441 kts 245°
2026-05-06 09:56 43.25430 5.40582 40921 ft 441 kts 245°
2026-05-06 09:56 43.23019 5.32854 40935 ft 441 kts 245°
2026-05-06 09:57 43.20606 5.25133 40933 ft 441 kts 245°
2026-05-06 09:57 43.18186 5.17415 40925 ft 441 kts 245°
2026-05-06 09:58 43.15767 5.09723 40938 ft 441 kts 245°
2026-05-06 09:58 43.13330 5.02000 40934 ft 441 kts 245°
2026-05-06 09:59 43.10891 4.94292 40927 ft 441 kts 245°
2026-05-06 09:59 43.08445 4.86581 40942 ft 441 kts 245°
2026-05-06 10:00 43.05192 4.79547 40950 ft 440 kts 230°
2026-05-06 10:00 43.01066 4.73353 40943 ft 441 kts 227°
2026-05-06 10:01 42.96718 4.67452 40930 ft 441 kts 224°
2026-05-06 10:01 42.92196 4.61776 40942 ft 441 kts 223°
2026-05-06 10:02 42.87615 4.56195 40941 ft 442 kts 223°
2026-05-06 10:02 42.83022 4.50639 40933 ft 442 kts 223°
2026-05-06 10:03 42.78412 4.45086 40946 ft 442 kts 223°
2026-05-06 10:03 42.73803 4.39551 40940 ft 442 kts 223°
2026-05-06 10:04 42.69188 4.34023 40937 ft 442 kts 223°
2026-05-06 10:04 42.64545 4.28473 40949 ft 442 kts 223°
2026-05-06 10:05 42.59931 4.22968 40937 ft 441 kts 223°
2026-05-06 10:05 42.55317 4.17475 40943 ft 441 kts 223°
2026-05-06 10:06 42.50711 4.12004 40953 ft 441 kts 223°
2026-05-06 10:06 42.46093 4.06528 40940 ft 440 kts 223°
2026-05-06 10:07 42.41456 4.01043 40949 ft 440 kts 223°
2026-05-06 10:07 42.36868 3.95628 40952 ft 440 kts 222°
2026-05-06 10:08 42.32248 3.90184 40945 ft 440 kts 222°
2026-05-06 10:08 42.27715 3.84629 40946 ft 441 kts 228°
2026-05-06 10:09 42.23825 3.78252 40969 ft 440 kts 233°
2026-05-06 10:09 42.20177 3.71624 40952 ft 439 kts 234°
2026-05-06 10:10 42.16618 3.64947 40963 ft 439 kts 235°
2026-05-06 10:10 42.13064 3.58260 40966 ft 439 kts 234°
2026-05-06 10:11 42.09513 3.51577 40955 ft 439 kts 234°
2026-05-06 10:11 42.05960 3.44892 40967 ft 439 kts 234°
2026-05-06 10:12 42.02402 3.38210 40966 ft 439 kts 235°
2026-05-06 10:12 41.98841 3.31534 40953 ft 439 kts 235°
2026-05-06 10:13 41.95276 3.24868 40970 ft 438 kts 235°
2026-05-06 10:13 41.91721 3.18233 40970 ft 438 kts 235°
2026-05-06 10:14 41.88163 3.11607 40957 ft 437 kts 235°
2026-05-06 10:14 41.84605 3.04996 40967 ft 437 kts 235°
2026-05-06 10:15 41.81046 2.98398 40969 ft 436 kts 235°
2026-05-06 10:15 41.77489 2.91816 40959 ft 436 kts 235°
2026-05-06 10:16 41.73919 2.85225 40968 ft 437 kts 235°
2026-05-06 10:16 41.70352 2.78655 40968 ft 437 kts 235°
2026-05-06 10:17 41.66705 2.72146 40958 ft 437 kts 233°
2026-05-06 10:17 41.62973 2.65726 40967 ft 437 kts 233°
2026-05-06 10:18 41.59230 2.59315 40969 ft 437 kts 233°
2026-05-06 10:18 41.56101 2.53949 40957 ft 438 kts 233°
2026-05-06 10:19 41.52378 2.47575 40967 ft 438 kts 233°
2026-05-06 10:19 41.48633 2.41181 40977 ft 438 kts 233°
2026-05-06 10:20 41.44856 2.34748 40974 ft 438 kts 233°
2026-05-06 10:20 41.41099 2.28364 40968 ft 438 kts 233°
2026-05-06 10:21 41.37349 2.22004 40983 ft 438 kts 233°
2026-05-06 10:21 41.33743 2.15497 40947 ft 438 kts 242°
2026-05-06 10:22 41.31667 2.07849 41013 ft 438 kts 253°
2026-05-06 10:22 41.30098 2.00046 40992 ft 437 kts 256°
2026-05-06 10:23 41.28849 1.92183 40984 ft 437 kts 258°
2026-05-06 10:23 41.27784 1.84225 40987 ft 437 kts 259°
2026-05-06 10:24 41.26775 1.76204 40991 ft 437 kts 259°
2026-05-06 10:24 41.25800 1.68281 40978 ft 437 kts 260°
2026-05-06 10:25 41.24854 1.60302 40982 ft 437 kts 260°
2026-05-06 10:25 41.23902 1.52281 40981 ft 437 kts 260°
2026-05-06 10:26 41.22959 1.44371 40967 ft 436 kts 259°
2026-05-06 10:26 41.22004 1.36403 40972 ft 436 kts 259°
2026-05-06 10:27 41.21045 1.28445 40970 ft 436 kts 259°
2026-05-06 10:27 41.20081 1.20488 40957 ft 437 kts 259°
2026-05-06 10:28 41.19109 1.12530 40971 ft 436 kts 259°
2026-05-06 10:28 41.18132 1.04582 40966 ft 437 kts 259°
2026-05-06 10:29 41.17147 0.96616 40961 ft 437 kts 259°
2026-05-06 10:29 41.16157 0.88663 40975 ft 437 kts 259°
2026-05-06 10:30 41.15160 0.80701 40968 ft 437 kts 259°
2026-05-06 10:30 41.14152 0.72696 40969 ft 437 kts 259°
2026-05-06 10:31 41.13145 0.64730 40981 ft 437 kts 259°
2026-05-06 10:31 41.12136 0.56771 40971 ft 438 kts 259°
2026-05-06 10:32 41.11124 0.48822 40978 ft 438 kts 259°
2026-05-06 10:32 41.10101 0.40873 40997 ft 438 kts 259°
2026-05-06 10:33 41.09069 0.32905 40995 ft 438 kts 259°
2026-05-06 10:33 41.08033 0.24953 40987 ft 438 kts 259°
2026-05-06 10:34 41.06991 0.16995 41000 ft 438 kts 259°
2026-05-06 10:34 41.05942 0.09028 40990 ft 439 kts 259°
2026-05-06 10:35 41.04889 0.01076 40989 ft 438 kts 259°
2026-05-06 10:35 41.03828 -0.06885 41002 ft 438 kts 259°
2026-05-06 10:36 41.02765 -0.14828 40987 ft 439 kts 259°
2026-05-06 10:36 41.01694 -0.22785 40997 ft 439 kts 259°
2026-05-06 10:37 41.00198 -0.30595 41015 ft 438 kts 252°
2026-05-06 10:37 40.98256 -0.38238 40894 ft 437 kts 251°
2026-05-06 10:38 40.97249 -0.42024 40413 ft 435 kts 251°
2026-05-06 10:38 40.96240 -0.45788 39913 ft 432 kts 251°
2026-05-06 10:38 40.95235 -0.49515 39392 ft 429 kts 251°
2026-05-06 10:38 40.94232 -0.53217 38867 ft 426 kts 250°
2026-05-06 10:39 40.93236 -0.56882 38387 ft 423 kts 250°
2026-05-06 10:39 40.92240 -0.60537 37942 ft 421 kts 250°
2026-05-06 10:39 40.91247 -0.64178 37497 ft 420 kts 251°
2026-05-06 10:39 40.90258 -0.67797 37052 ft 419 kts 250°
2026-05-06 10:40 40.89267 -0.71415 36605 ft 418 kts 250°
2026-05-06 10:40 40.88276 -0.75029 36156 ft 417 kts 251°
2026-05-06 10:40 40.87287 -0.78631 35720 ft 417 kts 251°
2026-05-06 10:40 40.86299 -0.82216 35341 ft 416 kts 251°
2026-05-06 10:41 40.85308 -0.85808 34935 ft 415 kts 251°
2026-05-06 10:41 40.84317 -0.89390 34486 ft 415 kts 251°
2026-05-06 10:41 40.83314 -0.93013 34029 ft 414 kts 251°
2026-05-06 10:41 40.82340 -0.96526 33584 ft 413 kts 251°
2026-05-06 10:42 40.81352 -1.00088 33132 ft 413 kts 251°
2026-05-06 10:42 40.80363 -1.03648 32683 ft 413 kts 251°
2026-05-06 10:42 40.79372 -1.07207 32233 ft 414 kts 251°
2026-05-06 10:42 40.78376 -1.10781 31779 ft 414 kts 251°
2026-05-06 10:43 40.77381 -1.14348 31328 ft 415 kts 251°
2026-05-06 10:43 40.76382 -1.17921 30876 ft 416 kts 251°
2026-05-06 10:43 40.75378 -1.21510 30424 ft 417 kts 251°
2026-05-06 10:44 40.73367 -1.28690 29526 ft 419 kts 251°
2026-05-06 10:44 40.72358 -1.32283 29072 ft 414 kts 250°
2026-05-06 10:44 40.71365 -1.35807 28618 ft 406 kts 250°
2026-05-06 10:44 40.70391 -1.39264 28166 ft 400 kts 250°
2026-05-06 10:45 40.69424 -1.42691 27713 ft 397 kts 250°
2026-05-06 10:45 40.68467 -1.46081 27263 ft 394 kts 250°
2026-05-06 10:45 40.67515 -1.49457 26814 ft 392 kts 250°
2026-05-06 10:45 40.66567 -1.52816 26341 ft 390 kts 250°
2026-05-06 10:46 40.65625 -1.56144 25863 ft 388 kts 250°
2026-05-06 10:46 40.64683 -1.59464 25386 ft 386 kts 250°
2026-05-06 10:46 40.63744 -1.62766 24909 ft 384 kts 250°
2026-05-06 10:46 40.62812 -1.66045 24464 ft 382 kts 250°
2026-05-06 10:47 40.61883 -1.69310 24072 ft 380 kts 250°
2026-05-06 10:47 40.60954 -1.72569 23704 ft 378 kts 250°
2026-05-06 10:47 40.60032 -1.75801 23358 ft 377 kts 250°
2026-05-06 10:47 40.59110 -1.79026 23011 ft 375 kts 250°
2026-05-06 10:48 40.58194 -1.82229 22663 ft 373 kts 250°
2026-05-06 10:48 40.57282 -1.85411 22314 ft 371 kts 250°
2026-05-06 10:48 40.56375 -1.88577 21965 ft 369 kts 250°
2026-05-06 10:48 40.55468 -1.91734 21615 ft 368 kts 250°
2026-05-06 10:49 40.54565 -1.94871 21265 ft 366 kts 250°
2026-05-06 10:49 40.53666 -1.97992 20915 ft 364 kts 250°
2026-05-06 10:49 40.52772 -2.01092 20568 ft 363 kts 250°
2026-05-06 10:49 40.51879 -2.04186 20218 ft 361 kts 250°
2026-05-06 10:50 40.50833 -2.07176 19856 ft 360 kts 243°
2026-05-06 10:50 40.49577 -2.10014 19517 ft 358 kts 240°
2026-05-06 10:50 40.48276 -2.12807 19161 ft 357 kts 240°
2026-05-06 10:50 40.46973 -2.15576 18812 ft 356 kts 240°
2026-05-06 10:51 40.45675 -2.18340 18462 ft 355 kts 240°
2026-05-06 10:51 40.44383 -2.21092 18111 ft 353 kts 240°
2026-05-06 10:51 40.43098 -2.23834 17760 ft 352 kts 240°
2026-05-06 10:51 40.41821 -2.26556 17410 ft 350 kts 240°
2026-05-06 10:52 40.40608 -2.29322 17039 ft 349 kts 246°
2026-05-06 10:52 40.40017 -2.32397 16755 ft 348 kts 261°
2026-05-06 10:52 40.39669 -2.35535 16507 ft 347 kts 262°
2026-05-06 10:52 40.39284 -2.38655 16194 ft 347 kts 260°
2026-05-06 10:53 40.38835 -2.41766 15844 ft 346 kts 259°
2026-05-06 10:53 40.38344 -2.44845 15493 ft 345 kts 258°
2026-05-06 10:53 40.37824 -2.47923 15139 ft 344 kts 258°
2026-05-06 10:53 40.37292 -2.50981 14786 ft 344 kts 257°
2026-05-06 10:54 40.36752 -2.54031 14435 ft 343 kts 257°
2026-05-06 10:54 40.36206 -2.57078 14083 ft 343 kts 257°
2026-05-06 10:54 40.35659 -2.60108 13731 ft 342 kts 257°
2026-05-06 10:54 40.35108 -2.63148 13380 ft 342 kts 257°
2026-05-06 10:55 40.34559 -2.66173 13027 ft 341 kts 257°
2026-05-06 10:55 40.34011 -2.69182 12677 ft 337 kts 257°
2026-05-06 10:55 40.33471 -2.72140 12325 ft 330 kts 257°
2026-05-06 10:55 40.32943 -2.75030 11973 ft 323 kts 257°
2026-05-06 10:56 40.32590 -2.76957 11735 ft 320 kts 257°
2026-05-06 10:56 40.31915 -2.80646 11265 ft 309 kts 257°
2026-05-06 10:56 40.31580 -2.82470 11028 ft 303 kts 257°
2026-05-06 10:56 40.30935 -2.85982 10563 ft 294 kts 257°
2026-05-06 10:57 40.30613 -2.87728 10320 ft 289 kts 257°
2026-05-06 10:57 40.30147 -2.90262 9991 ft 286 kts 257°
2026-05-06 10:57 40.29536 -2.93576 9693 ft 280 kts 257°
2026-05-06 10:57 40.29227 -2.95244 9555 ft 277 kts 257°
2026-05-06 10:58 40.28778 -2.97671 9354 ft 272 kts 256°
2026-05-06 10:58 40.28334 -3.00068 9154 ft 269 kts 256°
2026-05-06 10:58 40.27896 -3.02429 8954 ft 266 kts 256°
2026-05-06 10:58 40.27463 -3.04765 8755 ft 263 kts 256°
2026-05-06 10:59 40.27031 -3.07086 8556 ft 261 kts 256°
2026-05-06 10:59 40.26604 -3.09383 8356 ft 259 kts 256°
2026-05-06 10:59 40.26178 -3.11668 8167 ft 257 kts 256°
2026-05-06 10:59 40.26042 -3.13921 8001 ft 254 kts 274°
2026-05-06 11:00 40.26276 -3.16241 7826 ft 250 kts 278°
2026-05-06 11:00 40.26528 -3.18424 7623 ft 244 kts 279°
2026-05-06 11:00 40.26792 -3.20647 7356 ft 242 kts 279°
2026-05-06 11:00 40.27041 -3.22751 7053 ft 232 kts 278°
2026-05-06 11:01 40.27297 -3.24800 6742 ft 225 kts 279°
2026-05-06 11:01 40.27562 -3.26822 6434 ft 221 kts 280°
2026-05-06 11:01 40.27820 -3.28777 6138 ft 219 kts 280°
2026-05-06 11:01 40.28078 -3.30736 5840 ft 218 kts 279°
2026-05-06 11:02 40.28472 -3.32668 5516 ft 217 kts 291°
2026-05-06 11:02 40.29104 -3.34405 5243 ft 213 kts 301°
2026-05-06 11:02 40.30082 -3.35865 5057 ft 209 kts 315°
2026-05-06 11:02 40.31146 -3.37100 5011 ft 203 kts 320°
2026-05-06 11:03 40.32232 -3.38267 5013 ft 197 kts 322°
2026-05-06 11:03 40.33288 -3.39363 4997 ft 192 kts 322°
2026-05-06 11:03 40.34340 -3.40422 4987 ft 189 kts 323°
2026-05-06 11:03 40.35386 -3.41455 4910 ft 187 kts 323°
2026-05-06 11:04 40.36402 -3.42459 4726 ft 177 kts 323°
2026-05-06 11:04 40.37354 -3.43418 4505 ft 168 kts 323°
2026-05-06 11:04 40.38244 -3.44337 4250 ft 158 kts 322°
2026-05-06 11:04 40.39088 -3.45215 4068 ft 153 kts 322°
2026-05-06 11:05 40.39924 -3.46072 3870 ft 151 kts 323°
2026-05-06 11:05 40.40741 -3.46896 3672 ft 150 kts 323°
2026-05-06 11:05 40.41575 -3.47732 3469 ft 148 kts 323°
2026-05-06 11:05 40.42381 -3.48542 3284 ft 147 kts 323°
2026-05-06 11:06 40.43194 -3.49368 3087 ft 148 kts 323°
2026-05-06 11:06 40.44005 -3.50206 2889 ft 148 kts 322°
2026-05-06 11:06 40.44804 -3.51057 2663 ft 148 kts 322°
2026-05-06 11:06 40.45606 -3.51891 2433 ft 146 kts 323°
2026-05-06 11:07 40.46423 -3.52682 2234 ft 147 kts 324°
2026-05-06 11:07 40.47234 -3.53494 2095 ft 146 kts 323°
2026-05-06 11:07 40.47994 -3.54264 2015 ft 127 kts 323°
2026-05-06 11:07 40.48469 -3.54746 2014 ft 47 kts 321°
2026-05-06 11:08 40.48653 -3.54933 2014 ft 31 kts 315°
2026-05-06 11:08 40.48774 -3.55126 2014 ft 23 kts 301°
2026-05-06 11:08 40.48823 -3.55261 2014 ft 7 kts 288°
2026-05-06 11:08 40.48842 -3.55344 2014 ft 11 kts 285°
2026-05-06 11:09 40.48883 -3.55444 2014 ft 14 kts 318°
2026-05-06 11:09 40.48968 -3.55543 2014 ft 18 kts 319°
2026-05-06 11:09 40.49049 -3.55626 2014 ft 10 kts 324°
2026-05-06 11:09 40.49111 -3.55684 2014 ft 12 kts 324°
2026-05-06 11:10 40.49186 -3.55757 2014 ft 13 kts 322°
2026-05-06 11:10 40.49245 -3.55819 2014 ft 8 kts 321°
2026-05-06 11:10 40.49300 -3.55876 2014 ft 8 kts 321°
2026-05-06 11:10 40.49346 -3.55926 2014 ft 10 kts 320°
2026-05-06 11:11 40.49409 -3.55994 2014 ft 13 kts 321°
2026-05-06 11:11 40.49484 -3.56072 2014 ft 10 kts 323°
2026-05-06 11:11 40.49546 -3.56149 2014 ft 14 kts 288°
2026-05-06 11:11 40.49551 -3.56213 2014 ft 0 kts 272°
2026-05-06 11:12 40.49552 -3.56221 2014 ft 3 kts 272°
2026-05-06 11:12 40.49553 -3.56274 2014 ft 8 kts 272°
2026-05-06 11:12 40.49555 -3.56365 2014 ft 10 kts 267°
2026-05-06 11:12 40.49549 -3.56462 2014 ft 9 kts 264°
2026-05-06 11:13 40.49517 -3.56533 2014 ft 11 kts 202°
2026-05-06 11:13 40.49434 -3.56544 2014 ft 5 kts 181°
2026-05-06 11:13 40.49433 -3.56545 2014 ft 0 kts 181°
2026-05-06 11:14 40.49432 -3.56545 2014 ft 0 kts 181°
2026-05-06 11:15 40.49410 -3.56545 2014 ft 6 kts 181°
2026-05-06 11:15 40.49355 -3.56545 2014 ft 9 kts 177°
2026-05-06 11:15 40.49320 -3.56543 2014 ft 3 kts 184°
2026-05-06 11:15 40.49301 -3.56572 2014 ft 5 kts 262°
2026-05-06 11:16 40.49300 -3.56626 2014 ft 3 kts 270°
2026-05-06 11:16 40.49300 -3.56648 2014 ft 0 kts 269°